[[{"header":{"parameterUnit":"m.s-1","parameterCategory":1,"la1":30.2991,"la2":30.254,"lo1":-89.0895,"lo2":-89.0444,"dy":0.0017,"dx":0.0017,"nx":28,"ny":28,"refTime":"2024-05-18T09:00:00:Z","depth":0,"parameterNumber":2,"parameterNumberName":"U-component_of_WINDS"},"data":[0,0,0,0,0,0,0,0,0,0,0,0,0,0,0,0,0,0,0,0,0,0,0,0,0,0,0,0,0,0,0,0,0,0,0,0,0,0,0,0,0,0,0,0,0,0,0,0,0,0,0,0,0,0,0,0,0,0,1.2341,1.234,0,1.2312,1.2311,1.2311,1.2254,1.2253,1.2252,1.2251,1.2217,1.2217,1.2218,0,0,0,0,0,0,0,0,0,0,0,0,0,1.2348,1.2348,1.2341,1.234,1.234,1.2312,1.2311,1.2311,1.2254,1.2253,1.2251,1.225,1.2217,1.2217,1.2218,0,0,0,0,0,0,0,0,0,0,0,0,0,1.2334,1.2348,1.2341,1.2308,1.2305,1.2312,1.2311,1.2311,1.2254,1.2253,1.2251,1.2249,1.2217,1.2217,1.2218,1.2252,0,0,1.2218,1.2218,0,0,0,0,0,0,0,0,1.2335,1.2334,1.2313,1.2311,1.2307,1.2285,1.2301,1.2291,1.2255,1.2274,1.2251,1.2249,1.2241,1.2239,1.2237,1.2251,1.2249,1.2218,1.2218,1.2219,1.2219,0,0,0,0,0,0,0,1.2336,1.2335,1.2329,1.2313,1.2309,1.2295,1.2292,1.2299,1.2267,1.2272,1.2268,1.2265,1.2239,1.2237,1.2236,1.2249,1.2218,1.2219,1.2219,1.2219,1.2293,1.2294,0,0,0,0,0,0,1.2342,1.2336,1.233,1.2328,1.2317,1.2297,1.2292,1.2293,1.2267,1.2261,1.2267,1.2263,1.2237,1.2236,1.2234,1.2274,1.2219,1.2219,1.2219,1.2291,1.2293,1.2295,0,0,0,0,0,0,1.2342,1.2342,1.2331,1.2331,1.2329,1.2298,1.23,1.2294,1.2292,1.2263,1.2256,1.2271,1.2236,1.2234,1.2249,1.2272,1.2219,1.2219,1.2289,1.2292,1.2294,1.2353,0,0,0,0,0,0,1.2343,1.2342,1.2355,1.2332,1.2329,1.2346,1.2301,1.2294,1.2293,1.2287,1.2265,1.2259,1.2235,1.2249,1.225,1.2271,1.2219,1.2286,1.229,1.2293,1.2349,1.2358,1.2365,0,0,0,0,0,1.2343,1.2371,1.2355,1.2355,1.2344,1.2348,1.2346,1.2318,1.2295,1.2307,1.229,1.226,1.2271,1.2251,1.2251,1.2273,1.2285,1.2289,1.2293,1.2345,1.2356,1.2365,0,0,0,0,0,0,1.2395,1.2367,1.2349,1.2371,1.2363,1.2338,1.2352,1.2329,1.2326,1.232,1.2285,1.2281,1.2301,1.2289,1.2268,1.2307,1.2273,1.2278,1.2313,1.2323,1.2331,1.2332,1.2219,0,0,0,0,0,1.2409,1.2415,1.2391,1.2412,1.2409,1.2382,1.2382,1.2362,1.2351,1.2347,1.2329,1.232,1.2321,1.2322,1.2321,1.2349,1.2343,1.2365,1.2373,1.238,1.2383,1.2398,1.2407,1.2309,1.2309,1.2309,0,0,1.2437,1.2424,1.2429,1.2422,1.2413,1.242,1.2379,1.2387,1.2392,1.2347,1.2361,1.2349,1.2336,1.2358,1.2367,1.2348,1.241,1.2385,1.239,1.239,1.2403,1.2413,1.2421,1.2311,1.2311,1.231,0,0,1.2493,1.2483,1.25,1.2494,1.2482,1.2464,1.2469,1.245,1.244,1.2454,1.2422,1.2428,1.243,1.2422,1.2419,1.2479,1.2452,1.248,1.252,1.2536,1.2543,1.255,1.2571,1.2579,1.2484,1.2484,1.2484,0,1.2529,1.2538,1.2512,1.2524,1.2522,1.2486,1.2504,1.2499,1.2486,1.2486,1.2468,1.2473,1.2461,1.2482,1.2497,1.2495,1.25,1.248,1.2545,1.2551,1.2557,1.2576,1.2584,1.2487,1.2487,1.2486,1.2486,0,1.2584,1.2592,1.2608,1.2599,1.26,1.2615,1.2592,1.2596,1.2578,1.2563,1.2579,1.2565,1.2562,1.2566,1.2547,1.2585,1.2575,1.2551,1.2515,1.257,1.2588,1.2595,1.2492,1.2491,1.249,1.2489,0,0,1.2665,1.2647,1.2652,1.2649,1.2637,1.2642,1.2657,1.2656,1.266,1.2656,1.2667,1.2673,1.2652,1.2649,1.2629,1.2643,1.2692,1.2618,1.2617,1.2631,1.2734,1.275,1.2759,1.2677,1.2678,1.2679,1.2735,0,1.2715,1.2739,1.2718,1.2746,1.2753,1.2723,1.2736,1.273,1.2718,1.2723,1.271,1.2715,1.2687,1.2685,1.2698,1.2683,1.2712,1.268,1.2685,1.2686,1.2687,1.2768,1.2784,1.2838,1.2742,1.2743,1.2744,0,1.2775,1.2776,1.2805,1.2794,1.2796,1.2808,1.2808,1.2813,1.2807,1.2798,1.2797,1.2775,1.279,1.2759,1.2778,1.2757,1.2759,1.2753,1.2755,1.2751,1.2716,1.2766,1.2854,1.2861,1.2755,1.2754,1.2753,0,1.2831,1.2839,1.2858,1.2856,1.2844,1.2853,1.2849,1.2841,1.2843,1.2843,1.2845,1.2846,1.2846,1.2849,1.2828,1.2808,1.2851,1.2818,1.2843,1.2844,1.285,1.2849,1.2938,1.2856,1.2856,1.2856,1.2856,0,1.2887,1.2906,1.2883,1.2894,1.2915,1.2893,1.2914,1.2906,1.2901,1.2911,1.2885,1.2895,1.2869,1.2876,1.2861,1.288,1.2881,1.2873,1.2868,1.2874,1.2875,1.2872,1.2867,1.2858,1.2857,1.2857,1.2857,0,1.295,1.2935,1.2954,1.2943,1.2941,1.2956,1.2947,1.2957,1.2947,1.2959,1.2961,1.2944,1.2952,1.2933,1.2937,1.2928,1.2955,1.2945,1.2957,1.2953,1.2979,1.2976,1.3066,1.3077,1.2991,1.2992,1.2993,0,1.2985,1.2999,1.2991,1.2997,1.2994,1.3003,1.3007,1.2987,1.2992,1.2989,1.3,1.3007,1.301,1.3024,1.3012,1.3016,1.3005,1.3037,1.3005,1.3011,1.3004,1.3002,1.3003,1.3042,1.3043,1.3044,1.3044,0,1.305,1.3043,1.3049,1.3054,1.306,1.3062,1.3063,1.3069,1.3049,1.3056,1.3064,1.3068,1.3075,1.3081,1.3084,1.3079,1.3058,1.3056,1.3061,1.3065,1.3071,1.3067,1.2972,1.3052,1.3051,1.3051,1.305,1.305,1.3098,1.311,1.3108,1.3116,1.3116,1.3119,1.3129,1.3121,1.3129,1.3133,1.3123,1.3135,1.3132,1.3134,1.3132,1.3141,1.3126,1.3135,1.3137,1.3138,1.3142,1.3073,1.3142,1.3141,1.3141,1.3141,1.3141,0,1.316,1.3158,1.3167,1.317,1.3178,1.3162,1.3164,1.3171,1.3182,1.3182,1.3188,1.32,1.3208,1.3198,1.3205,1.3214,1.3205,1.3216,1.3213,1.3213,1.3155,1.3149,1.3224,1.3224,1.3224,1.3223,1.3223,1.3223,1.3193,1.3213,1.3207,1.3228,1.3226,1.3239,1.3241,1.3244,1.3244,1.3259,1.3266,1.3261,1.3258,1.3265,1.3272,1.3269,1.3272,1.3286,1.328,1.3225,1.3217,1.3209,1.3203,1.3287,1.3287,1.3336,1.3337,1.3337]},{"header":{"parameterUnit":"m.s-1","parameterCategory":1,"la1":30.2991,"la2":30.254,"lo1":-89.0895,"lo2":-89.0444,"dy":0.0017,"dx":0.0017,"nx":28,"ny":28,"refTime":"2024-05-18T09:00:00:Z","depth":0,"parameterNumber":3,"parameterNumberName":"V-component_of_WINDS"},"data":[0,0,0,0,0,0,0,0,0,0,0,0,0,0,0,0,0,0,0,0,0,0,0,0,0,0,0,0,0,0,0,0,0,0,0,0,0,0,0,0,0,0,0,0,0,0,0,0,0,0,0,0,0,0,0,0,0,0,-1.3047,-1.3049,0,-1.321,-1.3211,-1.3213,-1.3096,-1.3091,-1.3086,-1.3081,-1.3261,-1.3271,-1.328,0,0,0,0,0,0,0,0,0,0,0,0,0,-1.2647,-1.2655,-1.3047,-1.3049,-1.3051,-1.3209,-1.3212,-1.3214,-1.3097,-1.3091,-1.3084,-1.3078,-1.3258,-1.3269,-1.3281,0,0,0,0,0,0,0,0,0,0,0,0,0,-1.2817,-1.2658,-1.3047,-1.3011,-1.301,-1.3209,-1.3212,-1.3214,-1.3098,-1.309,-1.3083,-1.3075,-1.3254,-1.3268,-1.3283,-1.3529,0,0,-1.3327,-1.3333,0,0,0,0,0,0,0,0,-1.2808,-1.2832,-1.3015,-1.3014,-1.3013,-1.3124,-1.3137,-1.3321,-1.31,-1.3065,-1.308,-1.3071,-1.3223,-1.3239,-1.3288,-1.3538,-1.3546,-1.3328,-1.3337,-1.3343,-1.3347,0,0,0,0,0,0,0,-1.2796,-1.2824,-1.3112,-1.3018,-1.3016,-1.2991,-1.3007,-1.3171,-1.3187,-1.3068,-1.3059,-1.308,-1.3221,-1.3274,-1.3291,-1.3548,-1.3328,-1.3341,-1.335,-1.3355,-1.401,-1.4018,0,0,0,0,0,0,-1.2786,-1.2815,-1.3107,-1.3117,-1.2888,-1.3005,-1.3022,-1.3097,-1.3184,-1.319,-1.3086,-1.3073,-1.3253,-1.3274,-1.3297,-1.3593,-1.3343,-1.3357,-1.3365,-1.4001,-1.4012,-1.4021,0,0,0,0,0,0,-1.2777,-1.2813,-1.31,-1.2964,-1.2998,-1.302,-1.3105,-1.3104,-1.3157,-1.3198,-1.3202,-1.3137,-1.3248,-1.3277,-1.3472,-1.3597,-1.3363,-1.3377,-1.3991,-1.4004,-1.4016,-1.4186,0,0,0,0,0,0,-1.2767,-1.281,-1.2902,-1.2966,-1.3006,-1.3269,-1.3112,-1.3113,-1.318,-1.3165,-1.3246,-1.3253,-1.3244,-1.3451,-1.3486,-1.3613,-1.3388,-1.398,-1.3997,-1.4012,-1.4169,-1.4203,-1.4232,0,0,0,0,0,-1.2753,-1.2946,-1.2907,-1.2943,-1.312,-1.3276,-1.33,-1.3281,-1.3191,-1.3285,-1.3311,-1.325,-1.3576,-1.3471,-1.3511,-1.3644,-1.3972,-1.3992,-1.4011,-1.4155,-1.4196,-1.4231,0,0,0,0,0,0,-1.2902,-1.2954,-1.2912,-1.3131,-1.3199,-1.3256,-1.3375,-1.3326,-1.3425,-1.3408,-1.3385,-1.3404,-1.3609,-1.3645,-1.3527,-1.3887,-1.3761,-1.3789,-1.3857,-1.3896,-1.3927,-1.3916,-1.34,0,0,0,0,0,-1.2959,-1.3078,-1.3118,-1.3309,-1.3344,-1.3354,-1.3421,-1.34,-1.3473,-1.3503,-1.3543,-1.362,-1.3739,-1.3819,-1.3931,-1.4172,-1.419,-1.4283,-1.4314,-1.434,-1.4366,-1.4498,-1.454,-1.4085,-1.4085,-1.4084,0,0,-1.3082,-1.3125,-1.3202,-1.3339,-1.339,-1.3517,-1.3379,-1.352,-1.3615,-1.3526,-1.3711,-1.3744,-1.3827,-1.4046,-1.4145,-1.4083,-1.4495,-1.4365,-1.4385,-1.4397,-1.4522,-1.4565,-1.4604,-1.4098,-1.4096,-1.4094,0,0,-1.3369,-1.3412,-1.3575,-1.3627,-1.3703,-1.3708,-1.3747,-1.381,-1.3827,-1.4012,-1.3947,-1.4062,-1.4268,-1.433,-1.4389,-1.4696,-1.4645,-1.4734,-1.49,-1.5028,-1.5064,-1.5096,-1.5209,-1.5249,-1.4759,-1.4759,-1.4759,0,-1.3513,-1.3698,-1.3667,-1.3811,-1.3875,-1.3793,-1.396,-1.4013,-1.4125,-1.4173,-1.41,-1.4356,-1.4406,-1.4639,-1.4714,-1.4763,-1.481,-1.4727,-1.506,-1.5092,-1.5121,-1.5229,-1.5271,-1.477,-1.4768,-1.4767,-1.4766,0,-1.3872,-1.4001,-1.4124,-1.4228,-1.4305,-1.4461,-1.4456,-1.4539,-1.451,-1.4524,-1.4714,-1.477,-1.4893,-1.4945,-1.4922,-1.5176,-1.5135,-1.5062,-1.4935,-1.5176,-1.5277,-1.5317,-1.4785,-1.4781,-1.4778,-1.4775,0,0,-1.4264,-1.4344,-1.4391,-1.4437,-1.4513,-1.4615,-1.4767,-1.4881,-1.4954,-1.5032,-1.5162,-1.5336,-1.5268,-1.5335,-1.5317,-1.5429,-1.5672,-1.5342,-1.5343,-1.5404,-1.5959,-1.6016,-1.6064,-1.5635,-1.5643,-1.5649,-1.5953,0,-1.4557,-1.4818,-1.4793,-1.5042,-1.5162,-1.5085,-1.5217,-1.5281,-1.5297,-1.5404,-1.5422,-1.5547,-1.5446,-1.5486,-1.5593,-1.5619,-1.5784,-1.5597,-1.5761,-1.5767,-1.5747,-1.6116,-1.6178,-1.6462,-1.5992,-1.5998,-1.6003,0,-1.4936,-1.5023,-1.5283,-1.5339,-1.5389,-1.5509,-1.5611,-1.5713,-1.5784,-1.5788,-1.586,-1.5822,-1.5979,-1.5844,-1.6062,-1.5935,-1.6001,-1.6024,-1.6034,-1.6053,-1.5903,-1.6149,-1.6552,-1.6597,-1.6064,-1.6059,-1.6055,0,-1.52,-1.5381,-1.556,-1.5601,-1.5672,-1.5758,-1.5792,-1.5854,-1.5924,-1.6015,-1.6061,-1.6171,-1.6232,-1.632,-1.6314,-1.6215,-1.6536,-1.64,-1.6548,-1.6549,-1.6623,-1.662,-1.7047,-1.6658,-1.6658,-1.6657,-1.6656,0,-1.5533,-1.5696,-1.5679,-1.579,-1.5971,-1.5941,-1.6122,-1.6147,-1.6202,-1.6319,-1.6259,-1.6371,-1.6354,-1.6467,-1.6463,-1.6646,-1.6674,-1.6684,-1.6682,-1.6692,-1.6692,-1.6739,-1.6721,-1.6668,-1.6666,-1.6663,-1.6662,0,-1.586,-1.5854,-1.6045,-1.6093,-1.6109,-1.6241,-1.6285,-1.6391,-1.6399,-1.6548,-1.6581,-1.6596,-1.6726,-1.6727,-1.6877,-1.6874,-1.7099,-1.7073,-1.7074,-1.7071,-1.7219,-1.7207,-1.7696,-1.776,-1.7326,-1.733,-1.7333,0,-1.6075,-1.6198,-1.6258,-1.6329,-1.6367,-1.6484,-1.6553,-1.6528,-1.6605,-1.6693,-1.679,-1.6913,-1.701,-1.7222,-1.725,-1.7364,-1.7343,-1.7506,-1.7361,-1.7367,-1.735,-1.7345,-1.7359,-1.7537,-1.7541,-1.7545,-1.7548,0,-1.6459,-1.6449,-1.6549,-1.6649,-1.6733,-1.6811,-1.6884,-1.6947,-1.693,-1.7019,-1.7148,-1.7223,-1.7373,-1.7498,-1.7608,-1.7647,-1.7599,-1.7592,-1.7634,-1.7648,-1.7645,-1.7652,-1.7157,-1.7583,-1.758,-1.7577,-1.7575,-1.7574,-1.674,-1.6846,-1.6903,-1.7017,-1.7067,-1.7136,-1.7238,-1.7256,-1.7362,-1.7479,-1.7458,-1.7604,-1.7672,-1.7813,-1.7862,-1.7978,-1.7922,-1.798,-1.7996,-1.8012,-1.803,-1.7622,-1.7998,-1.7997,-1.7996,-1.7995,-1.7994,0,-1.7124,-1.7156,-1.726,-1.736,-1.7451,-1.7388,-1.7464,-1.7546,-1.7673,-1.7737,-1.7832,-1.7982,-1.8102,-1.8136,-1.8252,-1.8339,-1.832,-1.8371,-1.8368,-1.8378,-1.8072,-1.8026,-1.8385,-1.8385,-1.8385,-1.8385,-1.8385,-1.8385,-1.7335,-1.751,-1.7507,-1.7708,-1.7739,-1.7878,-1.7927,-1.7991,-1.8042,-1.821,-1.8307,-1.8326,-1.838,-1.8499,-1.8607,-1.8614,-1.8662,-1.8725,-1.8724,-1.8438,-1.8399,-1.8362,-1.8319,-1.8734,-1.8734,-1.902,-1.9023,-1.9025]}]]